[TLELIST] Archives

 

[list_settings.list_name] Current TLEs

June 3rd 2013 PST

HST 1 20580U 90037B 13153.78865707 .00001514 00000-0 95763-4 0 2533 2 20580 028.4711 007.2216 0002990 194.5761 220.7269 15.03656325 67525 ISS (ZARYA) 1 25544U 98067A 13154.52881257 .00009374 00000-0 16793-3 0 9286 2 25544 051.6478 176.0733 0010574 028.5472 067.6937 15.50651884832582 CXO 1 25867U 99040B 13154.69373076 -.00001166 00000-0 00000+0 0 9089 2 25867 075.3483 340.3266 8569414 277.5299 359.7384 00.37800245 10483 ____________________________________________________________________ These 2-Line ...Continue Reading

[list_settings.list_name] Current TLEs

June 1st 2013 PST

HST 1 20580U 90037B 13152.07650681 .00001646 00000-0 10519-3 0 2527 2 20580 028.4711 018.4452 0003009 176.0482 312.8538 15.03649866 67274 ISS (ZARYA) 1 25544U 98067A 13152.42232639 .00006332 00000-0 11625-3 0 9153 2 25544 051.6474 186.5136 0010216 022.8511 186.6556 15.50608707832254 CXO 1 25867U 99040B 13154.69373076 -.00001166 00000-0 00000+0 0 9089 2 25867 075.3483 340.3266 8569414 277.5299 359.7384 00.37800245 10483 ____________________________________________________________________ These 2-Line ...Continue Reading

[list_settings.list_name] Current TLEs

May 31st 2013 PST

HST 1 20580U 90037B 13150.80758351 .00001749 00000-0 11254-3 0 2519 2 20580 028.4712 026.7633 0003064 161.9075 284.6081 15.03645162 67072 ISS (ZARYA) 1 25544U 98067A 13151.45306713 .00007622 00000-0 13833-3 0 9101 2 25544 051.6470 191.3198 0010161 018.5327 176.8436 15.50600542832109 CXO 1 25867U 99040B 13152.04903758 -.00000993 00000-0 00000+0 0 9078 2 25867 075.3364 340.4671 8574714 277.5537 359.7518 00.37802192 10477 ____________________________________________________________________ These 2-Line ...Continue Reading

[list_settings.list_name] Current TLEs

May 30th 2013 PST

Unsubscribe Automatically: HST 1 20580U 90037B 13149.09314786 .00001618 00000-0 10316-3 0 2500 2 20580 028.4711 038.0065 0003235 142.7600 005.0164 15.03640263 66823 ISS (ZARYA) 1 25544U 98067A 13150.21304433 .00008994 00000-0 16186-3 0 9052 2 25544 051.6480 197.4680 0010081 013.9361 094.9165 15.50585853831915 CXO 1 25867U 99040B 13152.04903758 -.00000993 00000-0 00000+0 0 9078 2 25867 075.3364 340.4671 8574714 277.5537 359.7518 00.37802192 10477 ______________________________________________________ ...Continue Reading

[list_settings.list_name] Current TLEs

May 29th 2013 PST

HST 1 20580U 90037B 13149.09314786 .00001618 00000-0 10316-3 0 2500 2 20580 028.4711 038.0065 0003235 142.7600 005.0164 15.03640263 66823 ISS (ZARYA) 1 25544U 98067A 13149.50939454 .00009789 00000-0 17551-3 0 9004 2 25544 051.6483 200.9563 0009967 012.2921 126.1430 15.50575980831804 CXO 1 25867U 99040B 13149.40157956 -.00000760 00000-0 00000+0 0 9066 2 25867 075.3180 340.6341 8579348 277.5539 359.4563 00.37800116 10469 ____________________________________________________________________ These 2-Line ...Continue Reading

[list_settings.list_name] Current TLEs

May 28th 2013 PST

HST 1 20580U 90037B 13147.81458508 .00001716 00000-0 11021-3 0 2490 2 20580 028.4710 046.3875 0003301 129.4918 283.6510 15.03636440 66620 ISS (ZARYA) 1 25544U 98067A 13148.26805513 .00010745 00000-0 19199-3 0 8940 2 25544 051.6490 207.1102 0009867 007.5875 037.0879 15.50554108831619 CXO 1 25867U 99040B 13149.40157956 -.00000760 00000-0 00000+0 0 9066 2 25867 075.3180 340.6341 8579348 277.5539 359.4563 00.37800116 10469 ____________________________________________________________________ These 2-Line ...Continue Reading

[list_settings.list_name] Current TLEs

May 27th 2013 PST

HST 1 20580U 90037B 13146.17306402 .00001988 00000-0 12959-3 0 2484 2 20580 028.4709 057.1481 0003359 112.5853 037.3539 15.03629742 66380 ISS (ZARYA) 1 25544U 98067A 13147.37165294 .00011001 00000-0 19650-3 0 8887 2 25544 051.6492 211.5535 0009838 003.5328 074.1599 15.50535125831470 CXO 1 25867U 99040B 13149.40157956 -.00000760 00000-0 00000+0 0 9066 2 25867 075.3180 340.6341 8579348 277.5539 359.4563 00.37800116 10469 ____________________________________________________________________ These 2-Line ...Continue Reading

[list_settings.list_name] Current TLEs

May 26th 2013 PST

HST 1 20580U 90037B 13146.17306402 .00001988 00000-0 12959-3 0 2484 2 20580 028.4709 057.1481 0003359 112.5853 037.3539 15.03629742 66380 ISS (ZARYA) 1 25544U 98067A 13146.34811618 .00011254 00000-0 20101-3 0 8817 2 25544 051.6494 216.6284 0009668 359.5280 121.1287 15.50512434831319 CXO 1 25867U 99040B 13149.40157956 -.00000760 00000-0 00000+0 0 9066 2 25867 075.3180 340.6341 8579348 277.5539 359.4563 00.37800116 10469 ____________________________________________________________________ These 2-Line ...Continue Reading

[list_settings.list_name] Current TLEs

May 25th 2013 PST

HST 1 20580U 90037B 13145.12481481 .00002252 00000-0 14851-3 0 2476 2 20580 028.4710 064.0194 0003404 102.3360 122.1810 15.03625350 66220 ISS (ZARYA) 1 25544U 98067A 13145.24030940 .00012737 00000-0 22656-3 0 8731 2 25544 051.6497 222.1187 0009791 355.7461 057.2854 15.50491999831144 CXO 1 25867U 99040B 13146.75587934 -.00000728 00000-0 00000+0 0 9057 2 25867 075.3020 340.7952 8582710 277.5455 359.4469 00.37798858 10458 ____________________________________________________________________ These 2-Line ...Continue Reading

[list_settings.list_name] Current TLEs

May 24th 2013 PST

HST 1 20580U 90037B 13143.97223197 .00002064 00000-0 13507-3 0 2462 2 20580 028.4708 071.5743 0003411 091.2877 001.9491 15.03620150 66049 ISS (ZARYA) 1 25544U 98067A 13144.21626477 .00013875 00000-0 24625-3 0 8689 2 25544 051.6494 227.1952 0009573 351.2297 102.1116 15.50470296830981 CXO 1 25867U 99040B 13144.11109643 -.00000768 00000-0 00000+0 0 9045 2 25867 075.2854 340.9713 8584745 277.5313 359.5834 00.37801900 10441 ____________________________________________________________________ These 2-Line ...Continue Reading
  • This mailing list is a public mailing list - anyone may join or leave, at any time.
  • This mailing list is announce-only.

International Space Station (ISS) / Hubble Space Telescope (HST) / Chandra X-Ray Observatory Orbital Data via EMAIL

Privacy Policy:

Private list